Location: Unspecified
(52.8596°N, 0.0000°E)
Time: 08:04:06
(UTC+00:00)

Vanguard 1 - All Passes

Search period start: 04 April 2026 00:00
Search period end: 14 April 2026 00:00
Orbit: 654 x 3817 km, 34.2° (Epoch: 28 March)

Date Brightness Start Highest point End Pass type
(mag) Time Alt. Az. Time Alt. Az. Time Alt. Az.
4 Apr - 01:40:01 10° SSW 01:51:33 21° SSE 01:59:50 10° ESE visible
4 Apr - 04:00:59 10° SW 04:12:22 27° S 04:19:40 10° SE visible
4 Apr - 06:24:54 10° WSW 06:31:50 20° SSW 06:36:46 10° SSE daylight
4 Apr - 23:43:43 10° SSE 23:49:19 12° SE 23:54:18 10° SE visible
5 Apr - 01:57:39 10° SSW 02:10:38 25° SSE 02:19:31 10° ESE visible
5 Apr - 04:19:52 10° SW 04:31:22 28° S 04:38:40 10° SE visible
5 Apr - 06:44:30 10° WSW 06:50:34 17° SSW 06:55:04 10° S daylight
5 Apr - 23:58:06 10° S 00:08:17 16° SSE 00:16:31 10° ESE visible
6 Apr - 02:15:45 10° SW 02:29:43 28° SSE 02:38:56 10° ESE visible
6 Apr - 04:38:57 10° WSW 04:50:20 28° S 04:57:33 10° SE visible
6 Apr - 07:04:28 10° WSW 07:09:13 14° SW 07:12:58 10° S daylight
7 Apr - 00:14:23 10° S 00:27:17 21° SSE 00:37:06 10° ESE visible
7 Apr - 02:34:11 10° SW 02:48:48 31° S 02:58:11 10° ESE visible
7 Apr - 04:58:10 10° WSW 05:09:14 27° SSW 05:16:18 10° SE daylight
7 Apr - 07:25:18 10° WSW 07:27:46 11° SW 07:29:56 10° SSW daylight
8 Apr - 00:31:33 10° SSW 00:46:19 25° SSE 00:57:03 10° ESE visible
8 Apr - 02:52:54 10° SW 03:07:52 33° S 03:17:18 10° ESE visible
8 Apr - 05:17:33 10° WSW 05:28:03 26° SSW 05:34:54 10° SSE daylight
8 Apr - 22:34:31 10° SSE 22:43:42 14° SE 22:51:43 10° ESE visible
9 Apr - 00:49:16 10° SSW 01:05:22 29° SSE 01:16:40 10° ESE visible
9 Apr - 03:11:49 10° WSW 03:26:54 34° S 03:36:18 10° SE visible
9 Apr - 05:37:05 10° WSW 05:46:48 23° SSW 05:53:20 10° SSE daylight
9 Apr - 22:49:43 10° S 23:02:32 19° SE 23:13:12 10° ESE visible
10 Apr - 01:07:25 10° SW 01:24:26 32° SSE 01:36:03 10° ESE visible
10 Apr - 03:30:55 10° WSW 03:45:53 34° S 03:55:12 10° SE visible
10 Apr - 05:56:50 10° WSW 06:05:26 20° SW 06:11:29 10° S daylight
10 Apr - 23:06:13 10° S 23:21:25 23° SSE 23:33:36 10° ESE visible
11 Apr - 01:25:52 10° SW 01:43:31 35° S 01:55:18 10° ESE visible
11 Apr - 03:50:08 10° WSW 04:04:49 33° SSW 04:13:58 10° SE visible
11 Apr - 06:16:55 10° WSW 06:23:59 16° SW 06:29:15 10° S daylight
11 Apr - 21:14:25 10° SE 21:18:56 11° SE 21:23:17 10° ESE visible
11 Apr - 23:23:29 10° SSW 23:40:22 28° SSE 23:53:31 10° ESE visible
12 Apr - 01:44:35 10° SW 02:02:36 37° S 02:14:26 10° ESE visible
12 Apr - 04:09:31 10° WSW 04:23:41 31° SSW 04:32:37 10° SE visible
12 Apr - 06:37:43 10° WSW 06:42:24 13° SW 06:46:16 10° SSW daylight
12 Apr - 21:26:44 10° SSE 21:37:33 16° SE 21:47:28 10° ESE visible
12 Apr - 23:41:14 10° SSW 23:59:22 32° SSE 00:13:06 10° ESE visible
13 Apr - 02:03:30 10° WSW 02:21:39 38° S 02:33:27 10° ESE visible
13 Apr - 04:29:02 10° WSW 04:42:26 29° SSW 04:51:07 10° SSE visible
13 Apr - 21:42:12 10° S 21:56:14 20° SE 22:08:46 10° ESE visible
